Location: Selby
(38.0566°N, 122.2439°W)
Time: 17:14:40
(UTC+00:00)

FW4S - Visible Passes

Search period start: 19 April 2026 00:00
Search period end: 29 April 2026 00:00
Orbit: 620 x 667 km, 90.1° (Epoch: 19 April)

Date Brightness Start Highest point End Pass type
(mag) Time Alt. Az. Time Alt. Az. Time Alt. Az.
19 Apr 9.2 08:46:32 11° N 08:46:32 11° N 08:46:45 10° N visible
20 Apr 9.1 09:11:28 11° N 09:11:28 11° N 09:11:43 10° N visible
22 Apr 9.2 08:23:40 12° NNE 08:23:40 12° NNE 08:23:59 10° NNE visible
23 Apr 9.1 08:48:35 13° N 08:48:35 13° N 08:49:06 10° N visible
24 Apr 9.0 09:13:30 12° NNW 09:13:30 12° NNW 09:13:48 10° NNW visible
25 Apr 9.1 08:00:45 12° NNE 08:00:45 12° NNE 08:01:09 10° NNE visible
26 Apr 9.0 08:25:39 15° N 08:25:39 15° N 08:26:25 10° N visible
27 Apr 8.9 08:50:34 14° NNW 08:50:34 14° NNW 08:51:17 10° NNW visible
28 Apr 9.1 07:37:48 12° NNE 07:37:48 12° NNE 07:38:11 10° NNE visible
28 Apr 9.0 09:15:28 11° NNW 09:15:28 11° NNW 09:15:39 10° NNW visible
